Location: Brookfield Center
(41.2406°N, 80.5579°W)
Time: 01:12:39
(UTC+00:00)

Cosmos 1626 - Pass Details

Date: 18 January 2020
Orbit: 492 x 495 km, 82.5° (Epoch: 22 February)

Event Time Altitude Azimuth Distance (km) Brightness Sun altitude
Exits shadow 10:04:24 21° 122° (ESE) 1,147 4.5 -29.7°
Drops below altitude 10° 10:06:03 10° 141° (SE) 1,688 5.3 -29.4°
Sets 10:08:19 0° 152° (SSE) 2,565 6.1 -29.0°
